Location: Langdon Ridge
(53.3667°N, 4.6333°W)
Time: 01:34:18
(UTC+00:00)

Daily predictions for brighter satellites

Satellite Brightness Start Highest point End
(mag) Time Altitude Azimuth Time Altitude Azimuth Time Altitude Azimuth
CENTAUR R/B 4.3 02:45:10 35° E 02:45:10 35° E 02:50:15 10° ESE
Cosmos 2297 Rocket 4.3 03:32:24 22° NE 03:32:24 22° NE 03:34:18 10° NE
ATLAS 3B R/B 3.4 03:59:42 46° NNE 03:59:53 46° NNE 04:06:37 10° E
Cosmos 1943 3.8 04:17:13 53° E 04:17:13 53° E 04:21:50 10° SE
USA 229 DEB 4.4 04:17:28 41° N 04:17:28 41° N 04:23:30 10° NE
USA 229 4.4 04:17:33 41° N 04:17:33 41° N 04:23:35 10° NE
NOSS 3-2 (C) 3.8 04:20:32 83° SW 04:20:32 83° SW 04:28:50 10° SE
ATLAS CENTAUR R/B 3.9 04:23:42 16° ENE 04:23:42 16° ENE 04:24:57 10° ENE
Cosmos 2344 4.3 04:22:17 42° NNW 04:25:44 65° NNE 04:37:19 10° ESE
Nadezhda 1 Rocket 4.5 04:28:56 50° SSE 04:28:56 50° SSE 04:33:27 10° S
NOSS 3-1 (A) 4.3 04:31:08 40° N 04:31:08 40° N 04:37:25 10° NE
NOSS 3-1 (C) 4.4 04:31:44 37° N 04:31:44 37° N 04:38:29 10° ENE
SL-4 R/B 4.3 04:33:39 21° ESE 04:33:39 21° ESE 04:35:21 10° E
CENTAUR R/B 3.0 04:32:23 70° W 04:33:15 76° SW 04:42:01 10° SE
Cosmos 2082 4.0 04:35:29 59° NNE 04:35:29 59° NNE 04:40:08 10° NNE
Cosmos 2227 Rocket 3.1 04:40:17 37° N 04:40:17 37° N 04:43:53 10° NNE
Cosmos 489 Rocket 4.3 04:45:09 80° SW 04:45:09 80° SW 04:51:22 10° SSE
SL-08 ROCKET BODY 4.3 04:45:37 77° SSW 04:46:06 86° WNW 04:52:20 10° N
Cosmos 2219 4.3 04:49:12 33° N 04:49:12 33° N 04:52:52 10° NNE
NOSS 3-2 (A) 4.3 04:50:27 47° SW 04:50:27 47° SW 04:57:39 10° SSE
Gbstr 26 Del rocket 4.2 04:56:52 33° ESE 04:56:52 33° ESE 04:59:07 10° ESE
USA 307 3.6 04:57:31 54° E 04:57:31 54° E 05:00:57 10° ENE
Cosmos 1633 4.4 04:54:37 10° SSE 04:57:44 30° E 05:00:53 10° NNE
Lacrosse 4 Rocket 2.1 04:58:45 53° SE 04:58:45 53° SE 05:02:11 10° SE
SKYMED 2 4.0 04:57:30 10° SSE 05:01:47 61° ENE 05:02:27 53° NNE
USA 308 3.3 05:03:29 62° E 05:03:29 62° E 05:07:09 10° ENE
USA 238 DEB 4.2 05:05:55 42° SW 05:05:55 42° SW 05:12:23 10° S
USA 238 4.2 05:05:59 42° SW 05:05:59 42° SW 05:12:29 10° S
Cosmos 1461 4.0 05:09:38 38° S 05:09:38 38° S 05:12:42 10° SSE
Cosmos 2151 3.9 05:10:38 38° NNE 05:10:38 38° NNE 05:13:17 10° NNE
Timation 1 Rocket 4.2 05:08:58 53° SW 05:10:29 81° NW 05:16:34 10° NNE
Meteor 1-26 Rocket 4.4 05:05:48 10° N 05:11:43 74° ENE 05:17:25 10° SSE
Cosmos 1745 Rocket 3.9 05:07:56 19° SSW 05:12:32 70° WNW 05:18:54 10° N
Cosmos 1151 Rocket 3.1 05:12:35 64° NNE 05:13:07 74° ENE 05:17:23 10° SSE
Cosmos 2297 Rocket 3.2 05:14:13 30° NNW 05:14:13 30° NNW 05:18:15 10° NNE
CBERS 1 LM4 rocket 4.2 05:10:03 10° NNE 05:14:38 72° NW 05:14:38 72° NW
ALOS 2.1 05:11:55 10° NNE 05:16:38 88° W 05:19:00 30° SSW
BREEZE-M DEB (TANK) 4.4 05:16:30 39° WSW 05:19:02 52° SSW 05:22:56 10° SE
Cosmos 1328 Rocket 3.5 05:22:03 37° N 05:23:46 82° ENE 05:28:12 10° SSE
CZ-2C R/B 4.0 05:19:53 10° N 05:21:27 20° N 05:21:27 20° N
Cosmos 2181 Rocket 3.9 05:18:10 10° N 05:24:28 89° E 05:30:39 10° S
CZ-4C R/B 4.4 05:20:38 10° SSE 05:24:34 23° ESE 05:29:03 10° ENE
ERBS 3.2 05:25:08 46° SE 05:25:08 46° SE 05:28:01 10° ENE
CRYOSAT 2 4.4 05:21:58 10° S 05:26:50 81° E 05:31:44 10° N
Lacrosse 5 3.9 05:25:12 10° S 05:29:23 26° SE 05:33:33 10° ENE
USA 305 2.7 05:32:41 70° W 05:33:10 88° N 05:37:30 10° E
Cosmos 2263 Rocket 2.2 05:28:09 10° SSW 05:33:49 84° ESE 05:39:33 10° NNE
NOSS 2-2 (E) 4.4 05:34:56 32° NNW 05:34:56 32° NNW 05:38:54 10° NE
PSLV R/B 3.8 05:32:46 10° SSE 05:36:56 83° WSW 05:38:31 37° NNW
Cosmos 1709 Rocket 3.9 05:31:46 10° SSW 05:38:08 76° WNW 05:44:35 10° N
Cosmos 923 Rocket 3.9 05:37:01 34° NW 05:39:19 70° WSW 05:44:35 10° SSE
SJ 16-02 1.9 05:35:40 10° S 05:40:01 60° ESE 05:44:25 10° NNE
Meteor 2-3 Rocket 3.8 05:34:18 10° S 05:40:01 80° E 05:45:51 10° NNE
USA 306 2.8 05:40:35 58° W 05:41:25 86° N 05:45:44 10° E
Okean 3 Rocket 3.4 05:37:23 10° SSW 05:41:46 81° WNW 05:46:13 10° N
Cosmos 1766 Rocket 3.5 05:38:59 10° SSW 05:43:29 84° WNW 05:48:00 10° N
Cosmos 2082 Rocket 4.1 05:40:14 11° NNW 05:44:18 21° NNE 05:48:34 10° ENE
SJ-12 3.8 05:41:38 10° NNE 05:45:44 89° WNW 05:49:47 10° SSW
COSMO-SKYMED 1 2.7 05:45:39 10° S 05:49:52 50° W 05:51:01 39° NW
Cosmos 1603 4.4 05:50:20 31° WSW 05:50:25 31° WSW 05:55:18 10° SSW
ATLAS 3B R/B 2.7 05:46:58 26° NW 05:51:06 78° SW 05:58:15 10° SE
FENGYUN 3A 3.7 05:46:16 10° N 05:51:32 52° WNW 05:56:46 10° SW
Cosmos 1408 Rocket 3.8 05:47:57 10° S 05:52:23 72° E 05:56:52 10° NNE
CZ-2C R/B 3.9 05:48:23 10° SE 05:53:30 41° ENE 05:58:31 10° N
Cosmos 1933 4.4 05:57:42 28° SW 05:57:42 28° SW 06:00:16 10° SSW
ADEOS 3.7 05:53:27 10° N 05:58:31 51° WNW 06:03:33 10° SW
NOSS 2-2 (D) 4.4 05:58:53 28° NNW 05:59:24 29° NNW 06:03:28 10° NE
Cosmos 1943 3.9 05:59:05 29° W 05:59:55 30° WSW 06:04:49 10° SSW
ATLAS CENTAUR R/B 1.0 05:59:53 38° NW 06:01:14 89° NE 06:05:06 10° SE
EO 1 Delta rocket 3.8 05:56:28 10° S 06:01:34 87° W 06:06:13 10° N
Cosmos 1833 Rocket 4.1 05:56:51 10° NNW 06:01:49 32° NE 06:06:49 10° ESE
CZ-4B R/B 3.9 05:58:27 10° N 06:01:57 43° WNW 06:02:18 41° W
ATLAS 5 CENTAUR R/B 2.0 06:01:57 31° W 06:03:39 49° NNW 06:06:06 10° NE
Meteor 1-4 Rocket 3.4 06:06:07 30° SW 06:06:07 30° SW 06:08:28 10° SSW
Cosmos 2074 Rocket 4.1 06:00:26 10° S 06:06:37 78° E 06:12:51 10° NNE
Cosmos 1777 Rocket 4.3 06:03:53 20° WSW 06:07:05 44° NW 06:12:06 10° NNE
MOS 1 Rocket 3.3 06:02:55 10° SSE 06:07:43 81° WSW 06:12:52 10° NNW
Meteor 1-31 Rocket 3.2 06:04:33 10° N 06:08:11 38° WNW 06:10:33 19° SW
Cosmos 1680 Rocket 3.6 06:04:51 20° NW 06:08:23 55° WSW 06:13:33 10° S
Cosmos 1782 3.0 06:07:24 23° NNW 06:09:34 47° W 06:13:27 10° SSW
SL-4 R/B 2.1 06:09:14 26° WSW 06:11:16 61° S 06:14:53 10° E
H-2A R/B 3.5 06:08:58 10° NNE 06:12:44 44° E 06:16:25 10° S
RESURS DK-1 3.8 06:11:46 10° S 06:15:40 40° ESE 06:19:35 10° NE
NOSS 3-4 (A) 3.5 06:09:46 10° SW 06:15:45 86° SE 06:22:17 10° NE
NOSS 3-4 (C) 3.5 06:09:54 10° SW 06:15:53 86° SE 06:22:24 10° NE
Cosmos 2228 Rocket 3.1 06:14:14 10° N 06:18:43 87° ENE 06:23:09 10° S
Cosmos 158 Rocket 4.5 06:16:57 23° WNW 06:19:08 34° WSW 06:23:35 10° SSW
Cosmos 1441 Rocket 4.3 06:20:57 24° NW 06:20:57 24° NW 06:23:30 10° N
deb Chang Zheng 4 4.0 06:16:40 10° N 06:20:41 37° WNW 06:24:41 10° SW
Cosmos 2184 Rocket 4.0 06:14:21 10° S 06:20:41 89° W 06:27:07 10° N
SJ-7 4.5 06:17:16 10° NNE 06:21:20 81° ESE 06:25:25 10° SSW
CENTAUR R/B 4.1 06:19:36 19° WNW 06:23:13 26° WSW 06:30:02 10° SSW
Cosmos 2227 Rocket 3.6 06:22:07 17° NW 06:23:40 19° NNW 06:27:43 10° NNE
Cosmos 405 Rocket 3.5 06:20:08 10° S 06:23:44 52° E 06:27:24 10° NNE
USA 234 4.3 06:17:40 10° ENE 06:23:57 47° SE 06:30:13 10° SSW
Cosmos 2227 4.4 06:19:15 10° SW 06:24:42 49° NW 06:30:11 10° NNE
Cosmos 2112 Rocket 4.4 06:22:56 15° NW 06:27:07 46° WSW 06:32:12 10° S
Cosmos 1812 2.6 06:23:33 10° NNW 06:27:24 75° W 06:31:14 10° S
EXPRESS MD2 4.3 06:27:12 19° WSW 06:29:50 55° S 06:36:53 10° ESE
Cosmos 1633 3.5 06:29:37 10° SW 06:32:35 25° WNW 06:35:34 10° NNW
FALCON 9 DEB 3.1 06:30:45 22° W 06:32:52 87° S 06:36:21 10° E
Cosmos 1515 Rocket 4.1 06:30:38 10° NNW 06:34:44 36° W 06:38:49 10° SSW
ATLAS 2AS CENTAUR R/B 3.1 06:27:46 10° SW 06:35:47 90° NW 06:43:36 10° NE
Lacrosse 4 Rocket 3.0 06:35:06 17° W 06:36:01 18° WSW 06:38:59 10° SSW
USA 307 2.9 06:33:41 19° W 06:36:44 82° N 06:41:04 10° E
Geosat 4.0 06:31:42 10° SSE 06:36:45 85° WSW 06:41:49 10° NNW
Cosmos 1184 Rocket 3.8 06:35:40 10° SW 06:38:26 25° WNW 06:41:14 10° N
YAOGAN 6 2.4 06:37:01 10° NNE 06:40:34 80° WNW 06:44:03 10° SSW
Gbstr 26 Del rocket 4.1 06:39:24 15° W 06:41:42 26° SSW 06:45:02 10° SSE
USA 308 2.9 06:39:40 17° W 06:42:57 82° N 06:47:17 10° E
Cosmos 1437 Rocket 2.6 06:39:36 10° NNW 06:43:27 82° WSW 06:47:13 10° S
Cosmos 1898 Rocket 3.5 06:39:00 10° SSW 06:44:20 85° WNW 06:49:43 10° NNE
Meteor 2-6 Rocket 4.3 06:40:18 10° NNW 06:45:29 49° W 06:50:40 10° SSW
CZ-4B R/B 3.8 06:42:42 10° N 06:46:46 34° WNW 06:50:49 10° SW
CZ-4 R/B 4.4 06:45:23 10° NE 06:48:15 18° E 06:51:06 10° SE
Envisat 2.9 06:43:37 10° NNE 06:48:44 78° WNW 06:53:48 10° SSW
PAYLOAD B 4.3 06:43:37 10° NNE 06:49:12 85° ESE 06:54:43 10° SSW
CZ-4B DEB 4.2 06:45:27 10° NNE 06:50:56 81° WNW 06:56:24 10° SSW
Okean O Rocket 2.1 06:46:45 10° NNE 06:51:11 66° ESE 06:55:36 10° S
Cosmos 1707 Rocket 3.7 06:46:51 10° N 06:51:14 76° ENE 06:55:33 10° SSE
ALOS 3.7 06:50:26 10° NNW 06:53:25 17° NW 06:56:24 10° W
H-2A R/B 3.2 06:49:47 10° N 06:53:28 40° WNW 06:57:07 10° SW
Cosmos 1844 Rocket 2.9 06:47:54 10° SSW 06:53:34 81° ESE 06:59:16 10° NNE
DMSP B5D2-2 4.1 06:49:53 10° SSE 06:55:07 90° E 07:00:23 10° NNW
Cosmos 1844 4.0 06:52:14 10° SSW 06:57:45 72° ESE 07:03:20 10° NE
Cosmos 2297 Rocket 4.0 06:56:02 10° NW 06:59:05 15° NNW 07:02:16 10° NNE
Nadezhda 3 Rocket 4.2 06:53:29 10° NNW 06:59:39 55° W 07:05:43 10° SSW
NOAA 12 4.3 06:55:05 10° NNE 07:00:25 80° ESE 07:05:41 10° SSW
ERBS 2.5 06:58:02 11° W 07:01:03 52° NNW 07:04:19 10° ENE
Cosmos 1500 Rocket 3.8 06:58:51 10° SSW 07:03:01 46° WNW 07:07:13 10° N
Cosmos 1937 Rocket 3.4 07:00:55 10° SSW 07:06:05 77° WNW 07:11:19 10° NNE
USA 290 4.5 07:04:32 10° N 07:07:10 21° NE 07:09:46 10° ESE
Aureole 2 Rocket 2.0 07:08:56 10° SSW 07:11:28 69° ESE 07:14:02 10° NNE
Lacrosse 5 2.0 07:06:46 10° WSW 07:11:51 82° SSE 07:16:56 10° ENE
CZ-4C R/B 2.2 07:06:59 10° SW 07:12:12 86° NW 07:18:36 10° NE
USA 305 2.9 07:08:57 10° W 07:13:17 90° E 07:17:36 10° ESE
FALCON 9 DEB 4.4 07:13:05 10° SW 07:16:07 40° SSE 07:19:10 10° E
Cosmos 1048 Rocket 4.0 07:11:06 10° NNW 07:16:27 84° WSW 07:21:41 10° SSE
Cosmos 2263 Rocket 3.1 07:13:34 10° W 07:18:26 28° NW 07:23:20 10° NNE
Meteor 1-27 Rocket 4.0 07:12:57 10° NNW 07:18:31 54° W 07:24:09 10° S
SJ 16-02 2.5 07:15:23 10° WSW 07:18:59 24° NW 07:22:38 10° N
Cosmos 1862 4.0 07:16:51 10° SW 07:20:35 35° WNW 07:24:21 10° N
USA 306 3.0 07:17:12 10° W 07:21:32 87° S 07:25:51 10° ESE
Cosmos 494 Rocket 4.2 07:16:32 10° NNW 07:21:46 78° ENE 07:26:55 10° SSE
Cosmos 1743 Rocket 4.4 07:22:04 10° SW 07:26:01 30° WNW 07:30:01 10° N
CZ-4B R/B 3.1 07:21:55 10° NNE 07:27:13 70° WNW 07:32:34 10° SSW
Cosmos 2154 Rocket 4.2 07:21:26 10° SW 07:27:26 49° WNW 07:33:32 10° N
